Time,TemperatureF,DewpointF,PressureIn,WindDirection,WindDirectionDegrees,WindSpeedMPH,WindSpeedGustMPH,Humidity,HourlyPrecipIn,Conditions,Clouds,dailyrainin,SoftwareType,DateUTC
2013-09-14 00:01:00,55.2,52.9,29.95,NW,315,0.0,0.0,92,0.00,,---,0.00,VWS V14.00,2013-09-14 04:01:00,
2013-09-14 00:02:00,55.2,53.2,29.95,NW,315,0.0,0.0,93,0.00,,---,0.00,VWS V14.00,2013-09-14 04:02:00,
2013-09-14 00:07:00,55.0,53.0,29.95,NW,315,0.0,0.0,93,0.00,,---,0.00,VWS V14.00,2013-09-14 04:07:00,
2013-09-14 00:12:00,55.0,53.0,29.95,NW,315,0.0,0.0,93,0.00,,---,0.00,VWS V14.00,2013-09-14 04:12:00,
2013-09-14 00:17:00,54.8,52.8,29.96,NW,315,0.0,0.0,93,0.00,,---,0.00,VWS V14.00,2013-09-14 04:17:00,
2013-09-14 00:22:00,54.6,52.6,29.96,NW,315,0.0,0.0,93,0.00,,---,0.00,VWS V14.00,2013-09-14 04:22:00,
2013-09-14 00:27:00,54.6,52.6,29.96,NW,315,0.0,0.0,93,0.00,,---,0.00,VWS V14.00,2013-09-14 04:27:00,
2013-09-14 00:32:00,54.5,52.8,29.96,NW,315,0.0,0.0,94,0.00,,---,0.00,VWS V14.00,2013-09-14 04:32:00,
2013-09-14 00:37:00,54.5,52.8,29.96,NW,315,0.0,0.0,94,0.00,,---,0.00,VWS V14.00,2013-09-14 04:37:00,
2013-09-14 00:42:00,54.3,52.6,29.96,NW,315,0.0,0.0,94,0.00,,---,0.00,VWS V14.00,2013-09-14 04:42:00,
2013-09-14 00:47:00,54.3,52.6,29.96,NW,315,0.0,0.0,94,0.00,,---,0.00,VWS V14.00,2013-09-14 04:47:00,
2013-09-14 00:52:00,54.3,52.6,29.96,NW,315,0.0,0.0,94,0.00,,---,0.00,VWS V14.00,2013-09-14 04:52:00,
2013-09-14 00:57:00,54.3,52.6,29.96,NW,315,0.0,0.0,94,0.00,,---,0.00,VWS V14.00,2013-09-14 04:57:00,
2013-09-14 01:02:00,54.1,52.4,29.96,NW,315,0.0,0.0,94,0.00,,---,0.00,VWS V14.00,2013-09-14 05:02:00,
2013-09-14 01:07:00,54.1,52.4,29.96,NW,315,0.0,0.0,94,0.00,,---,0.00,VWS V14.00,2013-09-14 05:07:00,
2013-09-14 01:12:00,54.1,52.7,29.96,NW,315,0.0,0.0,95,0.00,,---,0.00,VWS V14.00,2013-09-14 05:12:00,
2013-09-14 01:17:00,54.1,52.7,29.96,NW,315,0.0,0.0,95,0.00,,---,0.00,VWS V14.00,2013-09-14 05:17:00,
2013-09-14 01:22:00,53.9,52.5,29.96,NW,315,0.0,0.0,95,0.00,,---,0.00,VWS V14.00,2013-09-14 05:22:00,
2013-09-14 01:27:00,53.9,52.5,29.96,NW,315,0.0,0.0,95,0.00,,---,0.00,VWS V14.00,2013-09-14 05:27:00,
2013-09-14 01:32:00,53.9,52.5,29.96,NW,315,0.0,0.0,95,0.00,,---,0.00,VWS V14.00,2013-09-14 05:32:00,
2013-09-14 01:37:00,53.7,52.3,29.96,NW,315,0.0,0.0,95,0.00,,---,0.00,VWS V14.00,2013-09-14 05:37:00,
2013-09-14 01:42:00,53.7,52.3,29.96,NW,315,0.0,0.0,95,0.00,,---,0.00,VWS V14.00,2013-09-14 05:42:00,
2013-09-14 01:47:00,53.7,52.3,29.96,NW,315,0.0,0.0,95,0.00,,---,0.00,VWS V14.00,2013-09-14 05:47:00,
2013-09-14 01:52:00,53.4,52.0,29.96,NW,315,0.0,0.0,95,0.00,,---,0.00,VWS V14.00,2013-09-14 05:52:00,
2013-09-14 01:57:00,53.4,52.0,29.96,NW,315,0.0,0.0,95,0.00,,---,0.00,VWS V14.00,2013-09-14 05:57:00,
2013-09-14 02:02:00,53.4,52.0,29.96,NW,315,0.0,0.0,95,0.00,,---,0.00,VWS V14.00,2013-09-14 06:02:00,
2013-09-14 02:07:00,53.2,51.8,29.96,NW,315,0.0,0.0,95,0.00,,---,0.00,VWS V14.00,2013-09-14 06:07:00,
2013-09-14 02:12:00,53.2,51.8,29.96,NW,315,0.0,0.0,95,0.00,,---,0.00,VWS V14.00,2013-09-14 06:12:00,
2013-09-14 02:17:00,53.2,51.8,29.96,NW,315,0.0,0.0,95,0.00,,---,0.00,VWS V14.00,2013-09-14 06:17:00,
2013-09-14 02:22:00,52.8,51.7,29.96,NW,315,0.0,0.0,96,0.00,,---,0.00,VWS V14.00,2013-09-14 06:22:00,
2013-09-14 02:27:00,52.8,51.7,29.96,NW,315,0.0,0.0,96,0.00,,---,0.00,VWS V14.00,2013-09-14 06:27:00,
2013-09-14 02:32:00,52.8,51.7,29.96,NW,315,0.0,0.0,96,0.00,,---,0.00,VWS V14.00,2013-09-14 06:32:00,
2013-09-14 02:37:00,52.8,51.7,29.96,NW,315,0.0,0.0,96,0.00,,---,0.00,VWS V14.00,2013-09-14 06:37:00,
2013-09-14 02:42:00,52.8,51.7,29.96,NW,315,0.0,0.0,96,0.00,,---,0.00,VWS V14.00,2013-09-14 06:42:00,
2013-09-14 02:47:00,52.7,51.6,29.96,NW,315,0.0,0.0,96,0.00,,---,0.00,VWS V14.00,2013-09-14 06:47:00,
2013-09-14 02:52:00,52.7,51.6,29.96,NW,315,0.0,0.0,96,0.00,,---,0.00,VWS V14.00,2013-09-14 06:52:00,
2013-09-14 02:57:00,52.7,51.6,29.96,NW,315,0.0,0.0,96,0.00,,---,0.00,VWS V14.00,2013-09-14 06:57:00,
2013-09-14 03:02:00,52.7,51.6,29.96,NW,315,0.0,0.0,96,0.00,,---,0.00,VWS V14.00,2013-09-14 07:02:00,
2013-09-14 03:07:00,52.5,51.4,29.96,NW,315,0.0,0.0,96,0.00,,---,0.00,VWS V14.00,2013-09-14 07:07:00,
2013-09-14 03:12:00,52.7,51.6,29.96,NW,315,0.0,0.0,96,0.00,,---,0.00,VWS V14.00,2013-09-14 07:12:00,
2013-09-14 03:17:00,52.7,51.6,29.96,NW,315,0.0,0.0,96,0.00,,---,0.00,VWS V14.00,2013-09-14 07:17:00,
2013-09-14 03:22:00,52.5,51.7,29.96,NW,315,0.0,0.0,97,0.00,,---,0.00,VWS V14.00,2013-09-14 07:22:00,
2013-09-14 03:27:00,52.5,51.7,29.96,NW,315,0.0,0.0,97,0.00,,---,0.00,VWS V14.00,2013-09-14 07:27:00,
2013-09-14 03:32:00,52.5,51.7,29.96,NW,315,0.0,0.0,97,0.00,,---,0.00,VWS V14.00,2013-09-14 07:32:00,
2013-09-14 03:37:00,52.3,51.5,29.96,NW,315,0.0,0.0,97,0.00,,---,0.00,VWS V14.00,2013-09-14 07:37:00,
2013-09-14 03:42:00,52.3,51.5,29.96,NW,315,0.0,0.0,97,0.00,,---,0.00,VWS V14.00,2013-09-14 07:42:00,
2013-09-14 03:47:00,52.3,51.5,29.96,NW,315,0.0,0.0,97,0.00,,---,0.00,VWS V14.00,2013-09-14 07:47:00,
2013-09-14 03:52:00,52.1,51.3,29.96,NW,315,0.0,0.0,97,0.00,,---,0.00,VWS V14.00,2013-09-14 07:52:00,
2013-09-14 03:58:00,51.9,51.1,29.96,NW,315,0.0,0.0,97,0.00,,---,0.00,VWS V14.00,2013-09-14 07:58:00,
2013-09-14 04:03:00,51.9,51.1,29.96,NW,315,0.0,0.0,97,0.00,,---,0.00,VWS V14.00,2013-09-14 08:03:00,
2013-09-14 04:08:00,51.8,51.0,29.96,NW,315,0.0,0.0,97,0.00,,---,0.00,VWS V14.00,2013-09-14 08:08:00,
2013-09-14 04:13:00,51.6,50.8,29.96,NW,315,0.0,0.0,97,0.00,,---,0.00,VWS V14.00,2013-09-14 08:13:00,
2013-09-14 04:18:00,51.6,50.8,29.96,NW,315,0.0,0.0,97,0.00,,---,0.00,VWS V14.00,2013-09-14 08:18:00,
2013-09-14 04:23:00,51.4,50.6,29.96,NW,315,0.0,0.0,97,0.00,,---,0.00,VWS V14.00,2013-09-14 08:23:00,
2013-09-14 04:28:00,51.4,50.6,29.96,NW,315,0.0,0.0,97,0.00,,---,0.00,VWS V14.00,2013-09-14 08:28:00,
2013-09-14 04:33:00,51.4,50.6,29.96,NW,315,0.0,0.0,97,0.00,,---,0.00,VWS V14.00,2013-09-14 08:33:00,
2013-09-14 04:38:00,51.0,50.5,29.96,NW,315,0.0,0.0,98,0.00,,---,0.00,VWS V14.00,2013-09-14 08:38:00,
2013-09-14 04:43:00,51.0,50.5,29.95,NW,315,0.0,0.0,98,0.00,,---,0.00,VWS V14.00,2013-09-14 08:43:00,
2013-09-14 04:48:00,50.9,50.4,29.96,NW,315,0.0,0.0,98,0.00,,---,0.00,VWS V14.00,2013-09-14 08:48:00,
2013-09-14 04:53:00,50.9,50.4,29.95,NW,315,0.0,0.0,98,0.00,,---,0.00,VWS V14.00,2013-09-14 08:53:00,
2013-09-14 04:58:00,50.9,50.4,29.96,NW,315,0.0,0.0,98,0.00,,---,0.00,VWS V14.00,2013-09-14 08:58:00,
2013-09-14 05:03:00,50.7,50.2,29.96,NW,315,0.0,0.0,98,0.00,,---,0.00,VWS V14.00,2013-09-14 09:03:00,
2013-09-14 05:08:00,50.7,50.2,29.96,NW,315,0.0,0.0,98,0.00,,---,0.00,VWS V14.00,2013-09-14 09:08:00,
2013-09-14 05:13:00,50.5,50.0,29.96,NW,315,0.0,0.0,98,0.00,,---,0.00,VWS V14.00,2013-09-14 09:13:00,
2013-09-14 05:18:00,50.5,50.0,29.96,NW,315,0.0,0.0,98,0.00,,---,0.00,VWS V14.00,2013-09-14 09:18:00,
2013-09-14 05:23:00,50.5,50.0,29.96,NW,315,0.0,0.0,98,0.00,,---,0.00,VWS V14.00,2013-09-14 09:23:00,
2013-09-14 05:28:00,50.3,49.8,29.97,NW,315,0.0,0.0,98,0.00,,---,0.00,VWS V14.00,2013-09-14 09:28:00,
2013-09-14 05:33:00,50.3,49.8,29.97,NW,315,0.0,0.0,98,0.00,,---,0.00,VWS V14.00,2013-09-14 09:33:00,
2013-09-14 05:38:00,50.3,49.8,29.97,NW,315,0.0,0.0,98,0.00,,---,0.00,VWS V14.00,2013-09-14 09:38:00,
2013-09-14 05:43:00,50.1,49.6,29.97,NW,315,0.0,0.0,98,0.00,,---,0.00,VWS V14.00,2013-09-14 09:43:00,
2013-09-14 05:48:00,50.1,49.6,29.97,NW,315,0.0,0.0,98,0.00,,---,0.00,VWS V14.00,2013-09-14 09:48:00,
2013-09-14 05:53:00,50.1,49.8,29.98,NW,315,0.0,0.0,99,0.00,,---,0.00,VWS V14.00,2013-09-14 09:53:00,
2013-09-14 05:59:00,50.1,49.8,29.98,NW,315,0.0,0.0,99,0.00,,---,0.00,VWS V14.00,2013-09-14 09:59:00,
2013-09-14 06:04:00,50.1,49.8,29.98,NW,315,0.0,0.0,99,0.00,,---,0.00,VWS V14.00,2013-09-14 10:04:00,
2013-09-14 06:09:00,50.1,49.8,29.98,NW,315,0.0,0.0,99,0.00,,---,0.00,VWS V14.00,2013-09-14 10:09:00,
2013-09-14 06:14:00,50.1,49.8,29.98,NW,315,0.0,0.0,99,0.00,,---,0.00,VWS V14.00,2013-09-14 10:14:00,
2013-09-14 06:19:00,50.1,49.8,29.98,NW,315,0.0,0.0,99,0.00,,---,0.00,VWS V14.00,2013-09-14 10:19:00,
2013-09-14 06:24:00,50.1,49.8,29.99,NW,315,0.0,0.0,99,0.00,,---,0.00,VWS V14.00,2013-09-14 10:24:00,
2013-09-14 06:29:00,50.1,49.8,29.99,NW,315,0.0,0.0,99,0.00,,---,0.00,VWS V14.00,2013-09-14 10:29:00,
2013-09-14 06:34:00,50.1,49.8,29.99,NW,315,0.0,0.0,99,0.00,,---,0.00,VWS V14.00,2013-09-14 10:34:00,
2013-09-14 06:39:00,50.1,49.8,29.99,NW,315,0.0,0.0,99,0.00,,---,0.00,VWS V14.00,2013-09-14 10:39:00,
2013-09-14 06:44:00,50.1,49.8,29.99,NW,315,0.0,0.0,99,0.00,,---,0.00,VWS V14.00,2013-09-14 10:44:00,
2013-09-14 06:49:00,50.1,49.8,30.00,NW,315,0.0,0.0,99,0.00,,---,0.00,VWS V14.00,2013-09-14 10:49:00,
2013-09-14 06:54:00,50.3,50.0,30.00,NW,315,0.0,0.0,99,0.00,,---,0.00,VWS V14.00,2013-09-14 10:54:00,
2013-09-14 06:59:00,50.5,50.5,30.00,NW,315,0.0,0.0,100,0.00,,---,0.00,VWS V14.00,2013-09-14 10:59:00,
2013-09-14 07:04:00,50.5,50.5,30.01,NW,315,0.0,0.0,100,0.00,,---,0.00,VWS V14.00,2013-09-14 11:04:00,
2013-09-14 07:09:00,50.7,50.7,30.01,NW,315,0.0,0.0,100,0.00,,---,0.00,VWS V14.00,2013-09-14 11:09:00,
2013-09-14 07:14:00,50.7,50.7,30.01,NW,315,0.0,0.0,100,0.00,,---,0.00,VWS V14.00,2013-09-14 11:14:00,
2013-09-14 07:19:00,50.7,50.7,30.01,NW,315,0.0,0.0,100,0.00,,---,0.00,VWS V14.00,2013-09-14 11:19:00,
2013-09-14 07:24:00,50.9,50.9,30.01,NW,315,0.0,0.0,100,0.00,,---,0.00,VWS V14.00,2013-09-14 11:24:00,
2013-09-14 07:29:00,50.9,50.9,30.01,NW,315,0.0,0.0,100,0.00,,---,0.00,VWS V14.00,2013-09-14 11:29:00,
2013-09-14 07:34:00,51.0,51.0,30.01,NW,315,0.0,0.0,100,0.00,,---,0.00,VWS V14.00,2013-09-14 11:34:00,
2013-09-14 07:39:00,51.0,51.0,30.02,NW,315,0.0,0.0,100,0.00,,---,0.00,VWS V14.00,2013-09-14 11:39:00,
2013-09-14 07:44:00,51.0,51.0,30.02,NW,315,0.0,0.0,100,0.00,,---,0.00,VWS V14.00,2013-09-14 11:44:00,
2013-09-14 07:49:00,51.2,51.2,30.02,NW,315,0.0,0.0,100,0.00,,---,0.00,VWS V14.00,2013-09-14 11:49:00,
2013-09-14 07:54:00,51.6,51.6,30.02,NW,315,0.0,0.0,100,0.00,,---,0.00,VWS V14.00,2013-09-14 11:54:00,
2013-09-14 07:59:00,51.8,51.8,30.03,NW,315,0.0,0.0,100,0.00,,---,0.00,VWS V14.00,2013-09-14 11:59:00,
2013-09-14 08:04:00,52.1,52.1,30.03,NW,315,0.0,0.0,100,0.00,,---,0.00,VWS V14.00,2013-09-14 12:04:00,
2013-09-14 08:09:00,52.7,52.7,30.04,NW,315,0.0,0.0,100,0.00,,---,0.00,VWS V14.00,2013-09-14 12:09:00,
2013-09-14 08:14:00,52.8,52.8,30.03,NW,315,0.0,0.0,100,0.00,,---,0.00,VWS V14.00,2013-09-14 12:14:00,
2013-09-14 08:19:00,53.2,53.2,30.04,NW,315,0.0,0.0,100,0.00,,---,0.00,VWS V14.00,2013-09-14 12:19:00,
2013-09-14 08:24:00,53.4,53.4,30.04,NW,315,0.0,0.0,100,0.00,,---,0.00,VWS V14.00,2013-09-14 12:24:00,
2013-09-14 08:29:00,53.6,53.6,30.04,NW,315,0.0,0.0,100,0.00,,---,0.00,VWS V14.00,2013-09-14 12:29:00,
2013-09-14 08:34:00,53.7,53.7,30.05,NW,315,0.0,0.0,100,0.00,,---,0.00,VWS V14.00,2013-09-14 12:34:00,
2013-09-14 08:39:00,54.3,54.3,30.05,NW,315,0.0,0.0,100,0.00,,---,0.00,VWS V14.00,2013-09-14 12:39:00,
2013-09-14 08:44:00,54.6,54.6,30.05,NW,315,0.0,0.0,100,0.00,,---,0.00,VWS V14.00,2013-09-14 12:44:00,
2013-09-14 08:49:00,55.2,54.9,30.05,NW,315,0.0,0.0,99,0.00,,---,0.00,VWS V14.00,2013-09-14 12:49:00,
2013-09-14 08:55:00,55.9,55.3,30.05,NW,315,0.0,0.0,98,0.00,,---,0.00,VWS V14.00,2013-09-14 12:55:00,
2013-09-14 08:59:00,56.3,55.5,30.05,ENE,68,0.0,0.0,97,0.00,,---,0.00,VWS V14.00,2013-09-14 12:59:00,
2013-09-14 09:05:00,56.8,55.4,30.06,ESE,112,0.0,0.0,95,0.00,,---,0.00,VWS V14.00,2013-09-14 13:05:00,
2013-09-14 09:10:00,57.3,55.6,30.06,NE,45,0.0,0.0,94,0.00,,---,0.00,VWS V14.00,2013-09-14 13:10:00,
2013-09-14 09:15:00,57.7,55.7,30.06,NE,45,0.0,0.0,93,0.00,,---,0.00,VWS V14.00,2013-09-14 13:15:00,
2013-09-14 09:20:00,58.2,56.5,30.06,South,180,0.0,0.0,94,0.00,,---,0.00,VWS V14.00,2013-09-14 13:20:00,
2013-09-14 09:25:00,58.8,56.5,30.06,SSE,158,0.0,0.0,92,0.00,,---,0.00,VWS V14.00,2013-09-14 13:25:00,
2013-09-14 09:30:00,59.1,56.8,30.06,ESE,112,0.0,0.0,92,0.00,,---,0.00,VWS V14.00,2013-09-14 13:30:00,
2013-09-14 09:35:00,59.7,57.1,30.06,SW,225,0.0,0.0,91,0.00,,---,0.00,VWS V14.00,2013-09-14 13:35:00,
2013-09-14 09:40:00,60.2,57.3,30.06,SSE,158,0.0,0.0,90,0.00,,---,0.00,VWS V14.00,2013-09-14 13:40:00,
2013-09-14 09:45:00,60.6,57.3,30.06,SE,135,0.0,0.0,89,0.00,,---,0.00,VWS V14.00,2013-09-14 13:45:00,
2013-09-14 09:50:00,61.3,57.7,30.06,NE,45,0.0,0.0,88,0.00,,---,0.00,VWS V14.00,2013-09-14 13:50:00,
2013-09-14 09:55:00,61.5,57.3,30.06,ESE,112,0.0,0.0,86,0.00,,---,0.00,VWS V14.00,2013-09-14 13:55:00,
2013-09-14 10:00:00,61.7,56.8,30.06,ENE,68,0.0,0.0,84,0.00,,---,0.00,VWS V14.00,2013-09-14 14:00:00,
2013-09-14 10:05:00,62.0,57.5,30.06,ENE,68,0.0,0.0,85,0.00,,---,0.00,VWS V14.00,2013-09-14 14:05:00,
2013-09-14 10:10:00,62.4,57.8,30.06,SSE,158,0.0,0.0,85,0.00,,---,0.00,VWS V14.00,2013-09-14 14:10:00,
2013-09-14 10:15:00,63.1,58.2,30.07,NE,45,0.0,0.0,84,0.00,,---,0.00,VWS V14.00,2013-09-14 14:15:00,
2013-09-14 10:20:00,63.6,58.0,30.07,NNE,22,0.0,0.0,82,0.00,,---,0.00,VWS V14.00,2013-09-14 14:20:00,
2013-09-14 10:25:00,63.8,57.9,30.07,NNE,22,0.0,0.0,81,0.00,,---,0.00,VWS V14.00,2013-09-14 14:25:00,
2013-09-14 10:30:00,64.0,58.1,30.07,WSW,248,0.0,0.0,81,0.00,,---,0.00,VWS V14.00,2013-09-14 14:30:00,
2013-09-14 10:35:00,64.9,58.9,30.07,East,90,0.0,0.0,81,0.00,,---,0.00,VWS V14.00,2013-09-14 14:35:00,
2013-09-14 10:40:00,65.4,58.7,30.07,WSW,248,0.0,0.0,79,0.00,,---,0.00,VWS V14.00,2013-09-14 14:40:00,
2013-09-14 10:45:00,66.0,59.3,30.07,ESE,112,0.0,0.0,79,0.00,,---,0.00,VWS V14.00,2013-09-14 14:45:00,
2013-09-14 10:50:00,66.0,57.9,30.07,NE,45,0.0,0.0,75,0.00,,---,0.00,VWS V14.00,2013-09-14 14:50:00,
2013-09-14 10:55:00,66.0,58.2,30.07,SW,225,0.0,0.0,76,0.00,,---,0.00,VWS V14.00,2013-09-14 14:55:00,
2013-09-14 11:00:00,66.7,58.5,30.07,SSW,202,0.0,0.0,75,0.00,,---,0.00,VWS V14.00,2013-09-14 15:00:00,
2013-09-14 11:05:00,67.2,59.4,30.07,South,180,0.0,0.0,76,0.00,,---,0.00,VWS V14.00,2013-09-14 15:05:00,
2013-09-14 11:10:00,67.8,59.6,30.07,South,180,0.0,0.0,75,0.00,,---,0.00,VWS V14.00,2013-09-14 15:10:00,
2013-09-14 11:15:00,68.1,58.7,30.07,North,0,0.0,0.6,72,0.00,,---,0.00,VWS V14.00,2013-09-14 15:15:00,
2013-09-14 11:20:00,68.1,58.7,30.07,SSW,202,0.0,0.0,72,0.00,,---,0.00,VWS V14.00,2013-09-14 15:20:00,
2013-09-14 11:26:00,68.7,59.7,30.07,SSW,202,0.8,0.8,73,0.00,,---,0.00,VWS V14.00,2013-09-14 15:26:00,
2013-09-14 11:31:00,69.0,59.2,30.06,SE,135,0.0,0.0,71,0.00,,---,0.00,VWS V14.00,2013-09-14 15:31:00,
2013-09-14 11:36:00,68.9,57.9,30.06,NE,45,0.0,0.0,68,0.00,,---,0.00,VWS V14.00,2013-09-14 15:36:00,
2013-09-14 11:41:00,68.7,58.1,30.07,South,180,0.0,0.0,69,0.00,,---,0.00,VWS V14.00,2013-09-14 15:41:00,
2013-09-14 11:46:00,69.0,58.4,30.07,WSW,248,0.0,0.0,69,0.00,,---,0.00,VWS V14.00,2013-09-14 15:46:00,
2013-09-14 11:51:00,69.4,58.8,30.07,SW,225,0.0,0.0,69,0.00,,---,0.00,VWS V14.00,2013-09-14 15:51:00,
2013-09-14 11:56:00,69.4,58.8,30.07,SSE,158,0.0,0.0,69,0.00,,---,0.00,VWS V14.00,2013-09-14 15:56:00,
2013-09-14 12:01:00,69.6,59.0,30.07,WSW,248,0.0,0.0,69,0.00,,---,0.00,VWS V14.00,2013-09-14 16:01:00,
2013-09-14 12:06:00,70.1,59.1,30.07,NE,45,1.1,1.1,68,0.00,,---,0.00,VWS V14.00,2013-09-14 16:06:00,
2013-09-14 12:11:00,70.3,59.2,30.07,NNE,22,0.0,0.0,68,0.00,,---,0.00,VWS V14.00,2013-09-14 16:11:00,
2013-09-14 12:16:00,70.3,58.8,30.07,East,90,0.0,2.0,67,0.00,,---,0.00,VWS V14.00,2013-09-14 16:16:00,
2013-09-14 12:21:00,70.5,59.4,30.07,ESE,112,0.0,0.0,68,0.00,,---,0.00,VWS V14.00,2013-09-14 16:21:00,
2013-09-14 12:26:00,71.2,59.7,30.07,SSE,158,0.0,0.0,67,0.00,,---,0.00,VWS V14.00,2013-09-14 16:26:00,
2013-09-14 12:31:00,71.2,59.7,30.07,SE,135,0.0,0.0,67,0.00,,---,0.00,VWS V14.00,2013-09-14 16:31:00,
2013-09-14 12:36:00,71.4,59.9,30.07,SSE,158,0.0,0.0,67,0.00,,---,0.00,VWS V14.00,2013-09-14 16:36:00,
2013-09-14 12:41:00,71.7,59.8,30.06,ENE,68,0.0,0.0,66,0.00,,---,0.00,VWS V14.00,2013-09-14 16:41:00,
2013-09-14 12:46:00,71.9,59.9,30.06,North,0,0.0,0.0,66,0.00,,---,0.00,VWS V14.00,2013-09-14 16:46:00,
2013-09-14 12:51:00,72.3,60.3,30.06,West,270,0.0,0.0,66,0.00,,---,0.00,VWS V14.00,2013-09-14 16:51:00,
2013-09-14 12:56:00,72.6,60.6,30.06,SE,135,0.0,0.0,66,0.00,,---,0.00,VWS V14.00,2013-09-14 16:56:00,
2013-09-14 13:01:00,73.2,61.2,30.06,SW,225,0.0,0.0,66,0.00,,---,0.00,VWS V14.00,2013-09-14 17:01:00,
2013-09-14 13:06:00,73.7,61.7,30.06,NE,45,0.0,0.0,66,0.00,,---,0.00,VWS V14.00,2013-09-14 17:06:00,
2013-09-14 13:11:00,73.4,60.0,30.06,SE,135,0.0,0.0,63,0.00,,---,0.00,VWS V14.00,2013-09-14 17:11:00,
2013-09-14 13:16:00,73.2,60.7,30.06,SSW,202,0.0,0.0,65,0.00,,---,0.00,VWS V14.00,2013-09-14 17:16:00,
2013-09-14 13:21:00,73.2,59.9,30.06,SW,225,2.4,2.4,63,0.00,,---,0.00,VWS V14.00,2013-09-14 17:21:00,
2013-09-14 13:26:00,73.2,60.3,30.06,WSW,248,0.0,2.4,64,0.00,,---,0.00,VWS V14.00,2013-09-14 17:26:00,
2013-09-14 13:31:00,73.4,60.5,30.06,SW,225,0.0,0.0,64,0.00,,---,0.00,VWS V14.00,2013-09-14 17:31:00,
2013-09-14 13:36:00,73.5,60.2,30.06,SSE,158,0.0,0.0,63,0.00,,---,0.00,VWS V14.00,2013-09-14 17:36:00,
2013-09-14 13:41:00,73.7,60.3,30.05,NE,45,0.0,0.0,63,0.00,,---,0.00,VWS V14.00,2013-09-14 17:41:00,
2013-09-14 13:46:00,73.5,60.2,30.06,NE,45,0.0,0.0,63,0.00,,---,0.00,VWS V14.00,2013-09-14 17:46:00,
2013-09-14 13:51:00,73.4,60.5,30.05,SE,135,0.0,0.0,64,0.00,,---,0.00,VWS V14.00,2013-09-14 17:51:00,
2013-09-14 13:56:00,73.5,61.0,30.05,ESE,112,0.0,0.0,65,0.00,,---,0.00,VWS V14.00,2013-09-14 17:56:00,
2013-09-14 14:01:00,73.5,61.0,30.05,SW,225,0.0,0.0,65,0.00,,---,0.00,VWS V14.00,2013-09-14 18:01:00,
2013-09-14 14:06:00,73.9,61.8,30.05,SW,225,1.3,1.3,66,0.00,,---,0.00,VWS V14.00,2013-09-14 18:06:00,
2013-09-14 14:11:00,74.8,62.7,30.05,SSE,158,0.0,0.0,66,0.00,,---,0.00,VWS V14.00,2013-09-14 18:11:00,
2013-09-14 14:16:00,75.2,63.1,30.05,South,180,0.0,1.3,66,0.00,,---,0.00,VWS V14.00,2013-09-14 18:16:00,
2013-09-14 14:21:00,75.3,62.3,30.05,SW,225,4.0,4.0,64,0.00,,---,0.00,VWS V14.00,2013-09-14 18:21:00,
2013-09-14 14:26:00,75.0,62.0,30.05,SW,225,0.0,4.0,64,0.00,,---,0.00,VWS V14.00,2013-09-14 18:26:00,
2013-09-14 14:31:00,75.2,62.2,30.05,SE,135,0.0,0.0,64,0.00,,---,0.00,VWS V14.00,2013-09-14 18:31:00,
2013-09-14 14:36:00,75.0,62.0,30.05,SW,225,1.7,1.7,64,0.00,,---,0.00,VWS V14.00,2013-09-14 18:36:00,
2013-09-14 14:41:00,74.4,61.4,30.05,SE,135,0.0,0.0,64,0.00,,---,0.00,VWS V14.00,2013-09-14 18:41:00,
2013-09-14 14:46:00,74.1,61.2,30.05,West,270,0.0,0.0,64,0.00,,---,0.00,VWS V14.00,2013-09-14 18:46:00,
2013-09-14 14:51:00,73.9,61.0,30.05,ENE,68,0.0,0.0,64,0.00,,---,0.00,VWS V14.00,2013-09-14 18:51:00,
2013-09-14 14:56:00,73.2,60.7,30.05,SW,225,0.0,1.1,65,0.00,,---,0.00,VWS V14.00,2013-09-14 18:56:00,
2013-09-14 15:01:00,73.0,60.1,30.05,NE,45,0.0,0.0,64,0.00,,---,0.00,VWS V14.00,2013-09-14 19:01:00,
2013-09-14 15:06:00,72.3,59.9,30.04,SSW,202,0.0,0.0,65,0.00,,---,0.00,VWS V14.00,2013-09-14 19:06:00,
2013-09-14 15:11:00,72.3,59.9,30.04,North,0,0.0,0.0,65,0.00,,---,0.00,VWS V14.00,2013-09-14 19:11:00,
2013-09-14 15:16:00,71.9,59.9,30.04,ESE,112,0.0,0.0,66,0.00,,---,0.00,VWS V14.00,2013-09-14 19:16:00,
2013-09-14 15:21:00,71.6,59.7,30.04,ENE,68,0.0,0.0,66,0.00,,---,0.00,VWS V14.00,2013-09-14 19:21:00,
2013-09-14 15:26:00,71.4,59.9,30.03,ESE,112,0.0,0.0,67,0.00,,---,0.00,VWS V14.00,2013-09-14 19:26:00,
2013-09-14 15:31:00,71.4,59.9,30.03,SSE,158,0.0,0.0,67,0.00,,---,0.00,VWS V14.00,2013-09-14 19:31:00,
2013-09-14 15:36:00,71.4,60.3,30.03,SSE,158,0.0,0.0,68,0.00,,---,0.00,VWS V14.00,2013-09-14 19:36:00,
2013-09-14 15:41:00,71.2,60.1,30.03,WSW,248,6.0,6.0,68,0.00,,---,0.00,VWS V14.00,2013-09-14 19:41:00,
2013-09-14 15:46:00,71.2,60.1,30.03,SW,225,0.0,6.0,68,0.00,,---,0.00,VWS V14.00,2013-09-14 19:46:00,
2013-09-14 15:51:00,71.2,60.1,30.03,SW,225,0.0,0.0,68,0.00,,---,0.00,VWS V14.00,2013-09-14 19:51:00,
2013-09-14 15:56:00,71.2,60.5,30.03,ESE,112,4.6,4.6,69,0.00,,---,0.00,VWS V14.00,2013-09-14 19:56:00,
2013-09-14 16:01:00,71.2,60.5,30.03,SW,225,0.0,0.0,69,0.00,,---,0.00,VWS V14.00,2013-09-14 20:01:00,
2013-09-14 16:06:00,70.8,60.1,30.03,SSW,202,0.0,0.0,69,0.00,,---,0.00,VWS V14.00,2013-09-14 20:06:00,
2013-09-14 16:11:00,70.5,60.3,30.03,WSW,248,1.5,1.5,70,0.00,,---,0.00,VWS V14.00,2013-09-14 20:11:00,
2013-09-14 16:16:00,70.3,60.1,30.04,WSW,248,0.0,1.5,70,0.00,,---,0.00,VWS V14.00,2013-09-14 20:16:00,
2013-09-14 16:21:00,70.5,60.7,30.04,SE,135,0.0,0.0,71,0.00,,---,0.00,VWS V14.00,2013-09-14 20:21:00,
2013-09-14 16:27:00,70.5,60.7,30.04,SW,225,0.0,0.0,71,0.00,,---,0.00,VWS V14.00,2013-09-14 20:27:00,
2013-09-14 16:32:00,70.5,60.7,30.04,SW,225,0.0,0.0,71,0.00,,---,0.00,VWS V14.00,2013-09-14 20:32:00,
2013-09-14 16:37:00,70.3,60.5,30.04,SSE,158,0.0,0.0,71,0.00,,---,0.00,VWS V14.00,2013-09-14 20:37:00,
2013-09-14 16:42:00,70.1,60.3,30.04,WSW,248,0.0,0.0,71,0.00,,---,0.00,VWS V14.00,2013-09-14 20:42:00,
2013-09-14 16:47:00,69.9,60.5,30.04,SSW,202,0.0,0.0,72,0.00,,---,0.00,VWS V14.00,2013-09-14 20:47:00,
2013-09-14 16:52:00,69.9,60.5,30.04,SW,225,0.0,0.8,72,0.00,,---,0.00,VWS V14.00,2013-09-14 20:52:00,
2013-09-14 16:57:00,69.9,60.5,30.04,WSW,248,0.0,0.8,72,0.00,,---,0.00,VWS V14.00,2013-09-14 20:57:00,
2013-09-14 17:02:00,69.8,60.4,30.04,ESE,112,0.0,0.0,72,0.00,,---,0.00,VWS V14.00,2013-09-14 21:02:00,
2013-09-14 17:07:00,69.6,60.2,30.04,West,270,0.0,0.0,72,0.00,,---,0.00,VWS V14.00,2013-09-14 21:07:00,
2013-09-14 17:12:00,69.4,60.0,30.04,NW,315,0.0,0.0,72,0.00,,---,0.00,VWS V14.00,2013-09-14 21:12:00,
2013-09-14 17:17:00,69.6,60.2,30.04,SSE,158,0.0,0.0,72,0.00,,---,0.00,VWS V14.00,2013-09-14 21:17:00,
2013-09-14 17:22:00,69.6,60.6,30.04,NNE,22,0.0,0.0,73,0.00,,---,0.00,VWS V14.00,2013-09-14 21:22:00,
2013-09-14 17:27:00,69.9,60.5,30.04,East,90,0.0,0.0,72,0.00,,---,0.00,VWS V14.00,2013-09-14 21:27:00,
2013-09-14 17:32:00,70.1,60.7,30.04,NNE,22,0.0,0.0,72,0.00,,---,0.00,VWS V14.00,2013-09-14 21:32:00,
2013-09-14 17:37:00,70.3,60.9,30.05,NNE,22,0.0,0.0,72,0.00,,---,0.00,VWS V14.00,2013-09-14 21:37:00,
2013-09-14 17:42:00,70.3,60.9,30.05,SE,135,0.0,0.0,72,0.00,,---,0.00,VWS V14.00,2013-09-14 21:42:00,
2013-09-14 17:47:00,70.3,60.9,30.05,SSE,158,0.0,0.0,72,0.00,,---,0.00,VWS V14.00,2013-09-14 21:47:00,
2013-09-14 17:52:00,70.1,61.0,30.05,NNW,338,0.0,0.0,73,0.00,,---,0.00,VWS V14.00,2013-09-14 21:52:00,
2013-09-14 17:57:00,70.1,61.0,30.05,SW,225,4.4,4.4,73,0.00,,---,0.00,VWS V14.00,2013-09-14 21:57:00,
2013-09-14 18:02:00,69.9,60.9,30.05,West,270,0.0,0.0,73,0.00,,---,0.00,VWS V14.00,2013-09-14 22:02:00,
2013-09-14 18:07:00,69.6,60.6,30.05,SE,135,0.0,0.0,73,0.00,,---,0.00,VWS V14.00,2013-09-14 22:07:00,
2013-09-14 18:12:00,69.6,61.0,30.06,WSW,248,0.0,0.0,74,0.00,,---,0.00,VWS V14.00,2013-09-14 22:12:00,
2013-09-14 18:17:00,69.4,60.8,30.06,SE,135,0.0,0.0,74,0.00,,---,0.00,VWS V14.00,2013-09-14 22:17:00,
2013-09-14 18:22:00,69.0,60.4,30.05,WSW,248,0.0,0.0,74,0.00,,---,0.00,VWS V14.00,2013-09-14 22:22:00,
2013-09-14 18:27:00,68.9,60.3,30.05,SW,225,0.0,0.0,74,0.00,,---,0.00,VWS V14.00,2013-09-14 22:27:00,
2013-09-14 18:32:00,68.7,60.5,30.06,South,180,0.0,0.0,75,0.00,,---,0.00,VWS V14.00,2013-09-14 22:32:00,
2013-09-14 18:37:00,68.5,60.3,30.06,SW,225,0.0,0.0,75,0.00,,---,0.00,VWS V14.00,2013-09-14 22:37:00,
2013-09-14 18:42:00,68.1,59.9,30.06,SSW,202,0.0,0.0,75,0.00,,---,0.00,VWS V14.00,2013-09-14 22:42:00,
2013-09-14 18:47:00,67.8,60.0,30.06,SW,225,0.0,0.0,76,0.00,,---,0.00,VWS V14.00,2013-09-14 22:47:00,
2013-09-14 18:49:00,67.6,59.8,30.06,SW,225,0.0,0.0,76,0.00,,---,0.00,VWS V14.00,2013-09-14 22:49:00,
2013-09-14 18:54:00,67.4,59.6,30.06,SW,225,0.0,0.0,76,0.00,,---,0.00,VWS V14.00,2013-09-14 22:54:00,
2013-09-14 18:59:00,67.2,59.8,30.06,SW,225,0.0,0.0,77,0.00,,---,0.00,VWS V14.00,2013-09-14 22:59:00,
2013-09-14 19:04:00,66.7,59.6,30.06,SW,225,0.0,0.0,78,0.00,,---,0.00,VWS V14.00,2013-09-14 23:04:00,
2013-09-14 19:09:00,66.3,59.6,30.06,SW,225,0.0,0.0,79,0.00,,---,0.00,VWS V14.00,2013-09-14 23:09:00,
2013-09-14 19:14:00,66.0,59.3,30.06,SW,225,0.0,0.0,79,0.00,,---,0.00,VWS V14.00,2013-09-14 23:14:00,
2013-09-14 19:19:00,65.3,59.0,30.06,SW,225,0.0,0.0,80,0.00,,---,0.00,VWS V14.00,2013-09-14 23:19:00,
2013-09-14 19:24:00,64.9,58.6,30.07,SW,225,0.0,0.0,80,0.00,,---,0.00,VWS V14.00,2013-09-14 23:24:00,
2013-09-14 19:29:00,64.5,58.5,30.07,SW,225,0.0,0.0,81,0.00,,---,0.00,VWS V14.00,2013-09-14 23:29:00,
2013-09-14 19:34:00,64.0,58.4,30.07,SW,225,0.0,0.0,82,0.00,,---,0.00,VWS V14.00,2013-09-14 23:34:00,
2013-09-14 19:39:00,63.5,57.9,30.07,SW,225,0.0,0.0,82,0.00,,---,0.00,VWS V14.00,2013-09-14 23:39:00,
2013-09-14 19:44:00,63.1,57.9,30.07,SW,225,0.0,0.0,83,0.00,,---,0.00,VWS V14.00,2013-09-14 23:44:00,
2013-09-14 19:49:00,62.4,57.5,30.07,SW,225,0.0,0.0,84,0.00,,---,0.00,VWS V14.00,2013-09-14 23:49:00,
2013-09-14 19:54:00,62.2,57.3,30.07,SW,225,0.0,0.0,84,0.00,,---,0.00,VWS V14.00,2013-09-14 23:54:00,
2013-09-14 19:59:00,61.8,57.2,30.07,SW,225,0.0,0.0,85,0.00,,---,0.00,VWS V14.00,2013-09-14 23:59:00,
2013-09-14 20:04:00,61.5,57.3,30.07,SW,225,0.0,0.0,86,0.00,,---,0.00,VWS V14.00,2013-09-15 00:04:00,
2013-09-14 20:09:00,61.1,56.9,30.07,SW,225,0.0,0.0,86,0.00,,---,0.00,VWS V14.00,2013-09-15 00:09:00,
2013-09-14 20:14:00,60.9,57.0,30.07,SW,225,0.0,0.0,87,0.00,,---,0.00,VWS V14.00,2013-09-15 00:14:00,
2013-09-14 20:19:00,60.4,56.8,30.08,SW,225,0.0,0.0,88,0.00,,---,0.00,VWS V14.00,2013-09-15 00:19:00,
2013-09-14 20:24:00,60.0,56.4,30.07,SW,225,0.0,0.0,88,0.00,,---,0.00,VWS V14.00,2013-09-15 00:24:00,
2013-09-14 20:29:00,59.9,56.7,30.08,SW,225,0.0,0.0,89,0.00,,---,0.00,VWS V14.00,2013-09-15 00:29:00,
2013-09-14 20:34:00,59.5,56.3,30.08,SW,225,0.0,0.0,89,0.00,,---,0.00,VWS V14.00,2013-09-15 00:34:00,
2013-09-14 20:39:00,59.3,56.1,30.08,SW,225,0.0,0.0,89,0.00,,---,0.00,VWS V14.00,2013-09-15 00:39:00,
2013-09-14 20:44:00,58.8,55.9,30.08,SW,225,0.0,0.0,90,0.00,,---,0.00,VWS V14.00,2013-09-15 00:44:00,
2013-09-14 20:49:00,58.8,55.9,30.08,SW,225,0.0,0.0,90,0.00,,---,0.00,VWS V14.00,2013-09-15 00:49:00,
2013-09-14 20:54:00,58.8,55.9,30.09,SW,225,0.0,0.0,90,0.00,,---,0.00,VWS V14.00,2013-09-15 00:54:00,
2013-09-14 20:59:00,58.6,55.7,30.09,SW,225,0.0,0.0,90,0.00,,---,0.00,VWS V14.00,2013-09-15 00:59:00,
2013-09-14 21:04:00,58.2,55.6,30.09,SW,225,0.0,0.0,91,0.00,,---,0.00,VWS V14.00,2013-09-15 01:04:00,
2013-09-14 21:09:00,58.1,55.5,30.10,SW,225,0.0,0.0,91,0.00,,---,0.00,VWS V14.00,2013-09-15 01:09:00,
2013-09-14 21:14:00,57.9,55.6,30.10,SW,225,0.0,0.0,92,0.00,,---,0.00,VWS V14.00,2013-09-15 01:14:00,
2013-09-14 21:19:00,57.7,55.4,30.10,SW,225,0.0,0.0,92,0.00,,---,0.00,VWS V14.00,2013-09-15 01:19:00,
2013-09-14 21:24:00,57.3,55.0,30.10,SW,225,0.0,0.0,92,0.00,,---,0.00,VWS V14.00,2013-09-15 01:24:00,
2013-09-14 21:29:00,57.3,55.0,30.10,SW,225,0.0,0.0,92,0.00,,---,0.00,VWS V14.00,2013-09-15 01:29:00,
2013-09-14 21:34:00,57.0,55.0,30.11,SW,225,0.0,0.0,93,0.00,,---,0.00,VWS V14.00,2013-09-15 01:34:00,
2013-09-14 21:39:00,57.0,55.0,30.11,SW,225,0.0,0.0,93,0.00,,---,0.00,VWS V14.00,2013-09-15 01:39:00,
2013-09-14 21:44:00,56.8,54.8,30.11,SW,225,0.0,0.0,93,0.00,,---,0.00,VWS V14.00,2013-09-15 01:44:00,
2013-09-14 21:50:00,56.6,54.6,30.11,SW,225,0.0,0.0,93,0.00,,---,0.00,VWS V14.00,2013-09-15 01:50:00,
2013-09-14 21:55:00,56.4,54.4,30.11,SW,225,0.0,0.0,93,0.00,,---,0.00,VWS V14.00,2013-09-15 01:55:00,
2013-09-14 22:00:00,56.4,54.7,30.11,SW,225,0.0,0.0,94,0.00,,---,0.00,VWS V14.00,2013-09-15 02:00:00,
2013-09-14 22:05:00,56.1,54.4,30.11,SW,225,0.0,0.0,94,0.00,,---,0.00,VWS V14.00,2013-09-15 02:05:00,
2013-09-14 22:10:00,55.9,54.2,30.11,SW,225,0.0,0.0,94,0.00,,---,0.00,VWS V14.00,2013-09-15 02:10:00,
2013-09-14 22:15:00,55.9,54.2,30.11,SW,225,0.0,0.0,94,0.00,,---,0.00,VWS V14.00,2013-09-15 02:15:00,
2013-09-14 22:20:00,55.7,54.0,30.11,SW,225,0.0,0.0,94,0.00,,---,0.00,VWS V14.00,2013-09-15 02:20:00,
2013-09-14 22:25:00,55.5,53.8,30.11,SW,225,0.0,0.0,94,0.00,,---,0.00,VWS V14.00,2013-09-15 02:25:00,
2013-09-14 22:30:00,55.4,54.0,30.11,SW,225,0.0,0.0,95,0.00,,---,0.00,VWS V14.00,2013-09-15 02:30:00,
2013-09-14 22:35:00,55.2,53.8,30.11,SW,225,0.0,0.0,95,0.00,,---,0.00,VWS V14.00,2013-09-15 02:35:00,
2013-09-14 22:40:00,55.2,53.8,30.11,SW,225,0.0,0.0,95,0.00,,---,0.00,VWS V14.00,2013-09-15 02:40:00,
2013-09-14 22:45:00,55.2,53.8,30.11,SW,225,0.0,0.0,95,0.00,,---,0.00,VWS V14.00,2013-09-15 02:45:00,
2013-09-14 22:50:00,55.0,53.9,30.11,SW,225,0.0,0.0,96,0.00,,---,0.00,VWS V14.00,2013-09-15 02:50:00,
2013-09-14 22:55:00,54.8,53.7,30.11,SW,225,0.0,0.0,96,0.00,,---,0.00,VWS V14.00,2013-09-15 02:55:00,
2013-09-14 23:00:00,54.6,53.5,30.11,SW,225,0.0,0.0,96,0.00,,---,0.00,VWS V14.00,2013-09-15 03:00:00,
2013-09-14 23:05:00,54.5,53.4,30.13,SW,225,0.0,0.0,96,0.00,,---,0.00,VWS V14.00,2013-09-15 03:05:00,
2013-09-14 23:10:00,54.3,53.2,30.12,SW,225,0.0,0.0,96,0.00,,---,0.00,VWS V14.00,2013-09-15 03:10:00,
2013-09-14 23:15:00,54.3,53.2,30.13,SW,225,0.0,0.0,96,0.00,,---,0.00,VWS V14.00,2013-09-15 03:15:00,
2013-09-14 23:20:00,54.1,53.0,30.13,SW,225,0.0,0.0,96,0.00,,---,0.00,VWS V14.00,2013-09-15 03:20:00,
2013-09-14 23:25:00,54.1,53.0,30.13,SW,225,0.0,0.0,96,0.00,,---,0.00,VWS V14.00,2013-09-15 03:25:00,
2013-09-14 23:30:00,54.1,53.0,30.13,SW,225,0.0,0.0,96,0.00,,---,0.00,VWS V14.00,2013-09-15 03:30:00,
2013-09-14 23:35:00,53.9,53.1,30.13,SW,225,0.0,0.0,97,0.00,,---,0.00,VWS V14.00,2013-09-15 03:35:00,
2013-09-14 23:40:00,53.7,52.9,30.13,SW,225,0.0,0.0,97,0.00,,---,0.00,VWS V14.00,2013-09-15 03:40:00,
2013-09-14 23:45:00,53.7,52.9,30.13,SW,225,0.0,0.0,97,0.00,,---,0.00,VWS V14.00,2013-09-15 03:45:00,
2013-09-14 23:50:00,53.6,52.8,30.13,SW,225,0.0,0.0,97,0.00,,---,0.00,VWS V14.00,2013-09-15 03:50:00,
2013-09-14 23:55:00,53.4,52.6,30.13,SW,225,0.0,0.0,97,0.00,,---,0.00,VWS V14.00,2013-09-15 03:55:00,